Dansville, NY

4:59 AM EST on December 11, 2017 (GMT -0500)
Dansville Municipal

Weather History for KDSV - December, 2011

Change the Weather History Date:

Sunday, December 25, 2011

  Actual Average Record
Temperature  
Mean Temperature 37 °F -  
Max Temperature 46 °F 35 °F 62 °F (1965)
Min Temperature 28 °F 18 °F -17 °F (1980)
Degree Days  
Heating Degree Days 28    
Moisture  
Dew Point 28 °F    
Average Humidity 68    
Maximum Humidity 93    
Minimum Humidity 44    
Precipitation  
Precipitation 0.00 in - - ()
Sea Level Pressure  
Sea Level Pressure 30.03 in    
Wind  
Wind Speed 6 mph (South)    
Max Wind Speed 12 mph    
Max Gust Speed 21 mph    
Visibility 10 miles    
Events Rain    
Averages and records for this station are not official NWS values.
T = Trace of Precipitation, MM = Missing Value Source: NWS Daily Summary

Daily Weather History Graph

Daily Weather History Graph

Search for Another Location

Airport or City:

Trip Planner

Search our weather history database for the weather conditions in past years. The results will help you decide how hot, cold, wet, or windy it might be!

Date:

Astronomy

Dec. 25, 2011 Rise Set
Actual Time 7:39 AM EST 4:42 PM EST
Civil Twilight 7:06 AM EST 5:14 PM EST
Nautical Twilight 6:31 AM EST 5:50 PM EST
Astronomical Twilight 5:57 AM EST 6:24 PM EST
Moon 8:14 AM EST (12/25) 6:02 PM EST (12/25)
Length of Visible Light 10h 07m
Length of Day
9h 03m
New Moon, 1% of the Moon is Illuminated
Dec 25
New Moon
Jan 1
First Quarter
Jan 9
Full
Jan 16
Last Quarter
Jan 23
New

Hourly Weather History & Observations

Time (EST) Temp. Windchill Dew Point Humidity Pressure Visibility Wind Dir Wind Speed Gust Speed Precip Events Conditions
12:54 AM 28.9 °F 23.9 °F 21.9 °F 75% 30.27 in 10.0 mi South 4.6 mph - N/A   Overcast
1:54 AM 28.9 °F 23.9 °F 21.9 °F 75% 30.26 in 10.0 mi South 4.6 mph - N/A   Overcast
2:54 AM 30.0 °F 24.1 °F 23.0 °F 75% 30.25 in 10.0 mi South 5.8 mph - N/A   Overcast
3:54 AM 30.0 °F 26.5 °F 24.1 °F 79% 30.21 in 10.0 mi South 3.5 mph - N/A   Overcast
4:54 AM 30.0 °F 25.2 °F 24.1 °F 79% 30.19 in 10.0 mi SE 4.6 mph - N/A   Mostly Cloudy
5:54 AM 32.0 °F 25.6 °F 25.0 °F 75% 30.16 in 10.0 mi SE 6.9 mph - N/A   Clear
6:54 AM 35.1 °F 26.9 °F 26.1 °F 70% 30.14 in 10.0 mi SE 11.5 mph - N/A   Clear
7:54 AM 34.0 °F 27.2 °F 25.0 °F 70% 30.13 in 10.0 mi ESE 8.1 mph - N/A   Clear
8:54 AM 36.0 °F 28.0 °F 25.0 °F 64% 30.10 in 10.0 mi SE 11.5 mph - N/A   Overcast
9:54 AM 39.0 °F 34.0 °F 26.1 °F 60% 30.09 in 10.0 mi SSE 6.9 mph - N/A   Overcast
10:54 AM 39.9 °F 33.4 °F 27.0 °F 60% 30.07 in 10.0 mi SE 10.4 mph - N/A   Overcast
11:54 AM 43.0 °F 38.2 °F 28.0 °F 56% 30.01 in 10.0 mi SSE 8.1 mph 16.1 mph N/A   Clear
12:54 PM 44.1 °F 39.0 °F 27.0 °F 51% 29.95 in 10.0 mi SSE 9.2 mph - N/A   Clear
1:54 PM 46.9 °F - 27.0 °F 46% 29.91 in 10.0 mi South 11.5 mph 19.6 mph N/A   Clear
2:54 PM 46.9 °F - 26.1 °F 44% 29.90 in 10.0 mi South 10.4 mph 17.3 mph N/A   Clear
3:54 PM 46.0 °F 43.1 °F 25.0 °F 44% 29.91 in 10.0 mi SSW 5.8 mph - N/A   Clear
4:54 PM 44.1 °F 42.5 °F 25.0 °F 47% 29.93 in 10.0 mi Variable 3.5 mph - N/A   Partly Cloudy
5:54 PM 43.0 °F 40.3 °F 25.0 °F 49% 29.93 in 10.0 mi Variable 4.6 mph - N/A   Mostly Cloudy
6:54 PM 42.1 °F 40.2 °F 26.1 °F 53% 29.94 in 10.0 mi Variable 3.5 mph - N/A   Clear
7:54 PM 42.1 °F 38.4 °F 30.0 °F 62% 29.95 in 10.0 mi Variable 5.8 mph 20.7 mph N/A   Overcast
8:20 PM 39.2 °F 35.9 °F 32.0 °F 75% 29.92 in 10.0 mi West 4.6 mph 16.1 mph 0.00 in Rain Light Rain
8:27 PM 39.2 °F 37.0 °F 32.0 °F 75% 29.92 in 10.0 mi WNW 3.5 mph - 0.00 in Rain Light Rain
8:54 PM 37.0 °F 33.3 °F 33.1 °F 86% 29.96 in 10.0 mi North 4.6 mph - 0.00 in   Overcast
9:06 PM 37.4 °F - 33.8 °F 87% 29.91 in 9.0 mi Calm Calm - 0.00 in Rain Light Rain
9:25 PM 35.6 °F 31.7 °F 33.8 °F 93% 29.92 in 5.0 mi NNW 4.6 mph - 0.02 in Rain Rain
10:18 PM 35.6 °F 28.6 °F 33.8 °F 93% 29.94 in 10.0 mi NW 9.2 mph 17.3 mph 0.00 in   Overcast
10:54 PM 36.0 °F 33.3 °F 33.1 °F 89% 30.00 in 10.0 mi Variable 3.5 mph - 0.00 in   Overcast
11:50 PM 37.4 °F 31.4 °F 30.2 °F 75% 29.97 in 10.0 mi WNW 8.1 mph - N/A   Overcast
11:54 PM 37.0 °F 30.4 °F 30.9 °F 79% 30.02 in 10.0 mi NW 9.2 mph - N/A   Overcast